TimeWEST,TemperatureF,Dew PointF,Humidity,Sea Level PressureIn,VisibilityMPH,Wind Direction,Wind SpeedMPH,Gust SpeedMPH,PrecipitationIn,Events,Conditions,WindDirDegrees,DateUTC
12:00 AM,62.6,53.6,72,29.98,6.2,NW,10.4,-,N/A,,Mostly Cloudy,310,2013-05-14 23:00:00
12:30 AM,60.8,53.6,77,29.98,6.2,NW,10.4,-,N/A,,Mostly Cloudy,320,2013-05-14 23:30:00
1:00 AM,61,53,66,29.94,6,NW,8.1,,,,Mostly Cloudy,320,2013-05-15 00:00:00
1:00 AM,60.8,53.6,77,29.95,6.2,NW,9.2,-,N/A,,Mostly Cloudy,320,2013-05-15 00:00:00
1:30 AM,60.8,53.6,77,29.95,6.2,WNW,10.4,-,N/A,,Mostly Cloudy,300,2013-05-15 00:30:00
2:00 AM,60.8,53.6,77,29.95,6.2,NW,9.2,-,N/A,,Mostly Cloudy,310,2013-05-15 01:00:00
2:30 AM,60.8,53.6,77,29.95,6.2,WNW,5.8,-,N/A,,Mostly Cloudy,300,2013-05-15 01:30:00
3:00 AM,60.8,53.6,77,29.92,6.2,NW,8.1,-,N/A,,Mostly Cloudy,310,2013-05-15 02:00:00
3:30 AM,60.8,51.8,72,29.92,6.2,NW,8.1,-,N/A,,Mostly Cloudy,310,2013-05-15 02:30:00
4:00 AM,60,50,61,29.90,6,NW,6.9,,,,Mostly Cloudy,320,2013-05-15 03:00:00
4:00 AM,60.8,50.0,68,29.92,6.2,NW,8.1,-,N/A,,Mostly Cloudy,310,2013-05-15 03:00:00
4:30 AM,60.8,50.0,68,29.92,6.2,NW,8.1,-,N/A,,Mostly Cloudy,320,2013-05-15 03:30:00
5:00 AM,60.8,50.0,68,29.92,6.2,NW,6.9,-,N/A,,Mostly Cloudy,310,2013-05-15 04:00:00
5:30 AM,60.8,50.0,68,29.92,6.2,NNW,6.9,-,N/A,,Mostly Cloudy,330,2013-05-15 04:30:00
6:00 AM,60.8,50.0,68,29.92,6.2,NW,6.9,-,N/A,,Mostly Cloudy,310,2013-05-15 05:00:00
6:30 AM,59.0,50.0,72,29.92,6.2,WNW,8.1,-,N/A,,Mostly Cloudy,290,2013-05-15 05:30:00
6:48 AM,60,50,61,29.90,5,WNW,5.8,,,,Partly Cloudy,300,2013-05-15 05:48:00
7:00 AM,60.8,50.0,68,29.92,5.0,WNW,5.8,-,N/A,,Mostly Cloudy,300,2013-05-15 06:00:00
7:30 AM,59.0,51.8,77,29.92,5.0,Calm,Calm,-,N/A,,Mostly Cloudy,0,2013-05-15 06:30:00
8:00 AM,60.8,51.8,72,29.92,5.0,Calm,Calm,-,N/A,,Scattered Clouds,0,2013-05-15 07:00:00
8:30 AM,60.8,51.8,72,29.92,5.0,Calm,Calm,-,N/A,,Scattered Clouds,0,2013-05-15 07:30:00
9:00 AM,60.8,51.8,72,29.92,5.0,West,4.6,-,N/A,,Mostly Cloudy,260,2013-05-15 08:00:00
9:30 AM,60.8,51.8,72,29.95,6.2,West,3.5,-,N/A,,Mostly Cloudy,260,2013-05-15 08:30:00
9:46 AM,61,52,64,29.91,4,West,6.9,,,,Mostly Cloudy,280,2013-05-15 08:46:00
10:00 AM,60.8,51.8,72,29.95,4.3,West,6.9,-,N/A,,Mostly Cloudy,270,2013-05-15 09:00:00
10:30 AM,60.8,53.6,77,29.95,5.0,West,6.9,-,N/A,,Mostly Cloudy,280,2013-05-15 09:30:00
11:30 AM,62.6,53.6,72,29.95,5.0,West,3.5,-,N/A,,Overcast,270,2013-05-15 10:30:00
12:00 PM,62.6,53.6,72,29.95,5.0,NNW,3.5,-,N/A,,Overcast,330,2013-05-15 11:00:00
12:30 PM,64.4,51.8,64,29.92,6.2,West,3.5,-,N/A,,Mostly Cloudy,280,2013-05-15 11:30:00
1:00 PM,67,52,47,29.87,6,WNW,5.8,,,,Mostly Cloudy,300,2013-05-15 12:00:00
1:00 PM,68.0,51.8,56,29.92,6.2,WNW,5.8,-,N/A,,Mostly Cloudy,300,2013-05-15 12:00:00
1:30 PM,68.0,51.8,56,29.92,6.2,NW,5.8,-,N/A,,Mostly Cloudy,320,2013-05-15 12:30:00
2:00 PM,68.0,50.0,52,29.89,6.2,WNW,5.8,-,N/A,,Mostly Cloudy,300,2013-05-15 13:00:00
2:30 PM,69.8,50.0,49,29.89,6.2,West,6.9,-,N/A,,Mostly Cloudy,280,2013-05-15 13:30:00
3:00 PM,71.6,50.0,46,29.89,6.2,WNW,8.1,-,N/A,,Mostly Cloudy,300,2013-05-15 14:00:00
3:30 PM,71.6,48.2,43,29.86,6.2,WNW,8.1,-,N/A,,Mostly Cloudy,290,2013-05-15 14:30:00
4:00 PM,73,46,27,29.81,6,NW,6.9,,,,Mostly Cloudy,310,2013-05-15 15:00:00
4:00 PM,73.4,46.4,38,29.86,6.2,NW,8.1,-,N/A,,Mostly Cloudy,310,2013-05-15 15:00:00
4:30 PM,73.4,46.4,38,29.86,6.2,WNW,8.1,-,N/A,,Mostly Cloudy,290,2013-05-15 15:30:00
5:00 PM,73.4,46.4,38,29.83,6.2,WNW,10.4,-,N/A,,Mostly Cloudy,300,2013-05-15 16:00:00
5:30 PM,75.2,44.6,34,29.83,6.2,West,10.4,-,N/A,,Mostly Cloudy,280,2013-05-15 16:30:00
6:00 PM,73.4,44.6,36,29.83,6.2,Variable,6.9,-,N/A,,Mostly Cloudy,0,2013-05-15 17:00:00
6:30 PM,73.4,44.6,36,29.83,6.2,West,8.1,-,N/A,,Mostly Cloudy,280,2013-05-15 17:30:00
7:00 PM,73,46,27,29.77,6,WNW,12.7,,,,Partly Cloudy,300,2013-05-15 18:00:00
7:00 PM,73.4,46.4,38,29.83,6.2,NW,11.5,-,N/A,,Scattered Clouds,310,2013-05-15 18:00:00
7:30 PM,71.6,46.4,41,29.83,6.2,WNW,10.4,-,N/A,,Scattered Clouds,300,2013-05-15 18:30:00
8:00 PM,69.8,44.6,40,29.83,6.2,NW,12.7,-,N/A,,Scattered Clouds,310,2013-05-15 19:00:00
8:30 PM,68.0,44.6,43,29.83,6.2,WNW,12.7,-,N/A,,Scattered Clouds,300,2013-05-15 19:30:00
9:00 PM,66.2,44.6,46,29.86,6.2,NW,13.8,-,N/A,,Scattered Clouds,310,2013-05-15 20:00:00
9:30 PM,64.4,44.6,49,29.86,6.2,WNW,17.3,-,N/A,,Scattered Clouds,290,2013-05-15 20:30:00
10:00 PM,62,46,45,29.85,6,WNW,15.0,,,,Partly Cloudy,290,2013-05-15 21:00:00
10:00 PM,62.6,46.4,55,29.89,6.2,WNW,15.0,-,N/A,,Scattered Clouds,290,2013-05-15 21:00:00
10:30 PM,60.8,46.4,59,29.89,6.2,West,13.8,-,N/A,,Scattered Clouds,280,2013-05-15 21:30:00
11:00 PM,59.0,48.2,67,29.89,6.2,West,12.7,-,N/A,,Scattered Clouds,270,2013-05-15 22:00:00
11:30 PM,59.0,48.2,67,29.89,6.2,West,10.4,-,N/A,,Scattered Clouds,270,2013-05-15 22:30:00